When you browse on this site, cookies collect data to enhance your experience and personalize the content and advertising you see.
Visit our Privacy Policy to learn more. By continuing to use the site, you agree to this use of cookies and data.
  • In Spain
  • List of Countries
  • For 7 days
  • Water Temperature
  • Weather Map
  • Weather Widgets
  • user-avatar
    Login

    Hourly Weather Preston

    Today, 15 September, Sunday

    Time Temperature Precipitation Wind Pressure Humidity
    00:00 +14°C° 0 mm 6 mps 765 mmHg 82%
    01:00 +14°C° 0 mm 6 mps 765 mmHg 84%
    02:00 +14°C° 0 mm 7 mps 764 mmHg 86%
    03:00 +15°C° 0 mm 7 mps 764 mmHg 89%
    04:00 +15°C° 0 mm 7 mps 764 mmHg 90%
    05:00 +15°C° 0 mm 6 mps 764 mmHg 92%
    06:00 +15°C° 0 mm 5 mps 764 mmHg 90%
    07:00 +15°C° 0 mm 5 mps 765 mmHg 88%
    08:00 +15°C° 0 mm 5 mps 765 mmHg 86%
    09:00 +14°C° 0 mm 5 mps 765 mmHg 84%
    10:00 +14°C° 0 mm 4 mps 765 mmHg 80%
    11:00 +14°C° 0 mm 4 mps 765 mmHg 76%
    12:00 +14°C° 0 mm 3 mps 765 mmHg 73%
    13:00 +14°C° 0 mm 3 mps 765 mmHg 72%
    14:00 +14°C° 0 mm 3 mps 765 mmHg 71%
    15:00 +14°C° 0 mm 3 mps 765 mmHg 71%
    16:00 +15°C° 0.1 mm 2 mps 764 mmHg 74%
    17:00 +14°C° 0.1 mm 2 mps 764 mmHg 76%
    18:00 +13°C° 0.1 mm 1 mps 764 mmHg 79%
    19:00 +13°C° 0.4 mm 1 mps 764 mmHg 82%
    20:00 +13°C° 0.4 mm 1 mps 764 mmHg 85%
    21:00 +12°C° 0.4 mm 0 mps 764 mmHg 88%
    22:00 +13°C° 0.8 mm 1 mps 764 mmHg 90%
    23:00 +12°C° 0.8 mm 1 mps 764 mmHg 92%

    Tomorrow, 16 September, Monday

    Time Temperature Precipitation Wind Pressure Humidity
    00:00 +12°C° 0.8 mm 1 mps 763 mmHg 94%
    01:00 +12°C° 0.2 mm 1 mps 763 mmHg 93%
    02:00 +12°C° 0.2 mm 1 mps 763 mmHg 93%
    03:00 +12°C° 0.2 mm 1 mps 763 mmHg 93%
    04:00 +12°C° 0 mm 1 mps 763 mmHg 92%
    05:00 +12°C° 0 mm 2 mps 763 mmHg 92%
    06:00 +10°C° 0 mm 2 mps 763 mmHg 92%
    07:00 +12°C° 0 mm 2 mps 763 mmHg 88%
    08:00 +13°C° 0 mm 2 mps 764 mmHg 85%
    09:00 +13°C° 0 mm 3 mps 764 mmHg 81%
    10:00 +13°C° 0 mm 3 mps 764 mmHg 76%
    11:00 +14°C° 0 mm 4 mps 764 mmHg 71%
    12:00 +14°C° 0 mm 4 mps 765 mmHg 66%
    13:00 +14°C° 0 mm 4 mps 765 mmHg 68%
    14:00 +14°C° 0 mm 5 mps 765 mmHg 69%
    15:00 +14°C° 0 mm 5 mps 765 mmHg 70%
    16:00 +13°C° 0 mm 4 mps 765 mmHg 75%
    17:00 +12°C° 0 mm 4 mps 765 mmHg 79%
    18:00 +12°C° 0 mm 4 mps 765 mmHg 83%
    19:00 +11°C° 0 mm 3 mps 766 mmHg 83%
    20:00 +10°C° 0 mm 3 mps 766 mmHg 84%
    21:00 +10°C° 0 mm 3 mps 767 mmHg 85%
    22:00 +9°C° 0 mm 3 mps 767 mmHg 85%
    23:00 +9°C° 0 mm 2 mps 767 mmHg 85%

    Day after tomorrow, 17 September, Tuesday

    Time Temperature Precipitation Wind Pressure Humidity
    00:00 +9°C° 0 mm 2 mps 767 mmHg 85%
    01:00 +9°C° 0 mm 2 mps 767 mmHg 86%
    02:00 +8°C° 0 mm 2 mps 767 mmHg 86%
    03:00 +8°C° 0 mm 2 mps 767 mmHg 86%
    04:00 +8°C° 0 mm 2 mps 767 mmHg 86%
    05:00 +8°C° 0 mm 2 mps 767 mmHg 86%
    06:00 +8°C° 0 mm 2 mps 767 mmHg 86%
    07:00 +9°C° 0 mm 3 mps 767 mmHg 82%
    08:00 +11°C° 0 mm 3 mps 767 mmHg 78%
    09:00 +12°C° 0 mm 3 mps 768 mmHg 74%
    10:00 +13°C° 0 mm 3 mps 767 mmHg 71%
    11:00 +13°C° 0 mm 3 mps 767 mmHg 69%
    12:00 +14°C° 0 mm 4 mps 767 mmHg 67%
    13:00 +14°C° 0 mm 4 mps 767 mmHg 68%
    14:00 +14°C° 0 mm 4 mps 767 mmHg 69%
    15:00 +14°C° 0 mm 4 mps 767 mmHg 70%
    16:00 +13°C° 0 mm 4 mps 767 mmHg 74%
    17:00 +12°C° 0 mm 3 mps 767 mmHg 78%
    18:00 +11°C° 0 mm 3 mps 767 mmHg 83%
    19:00 +12°C° 0 mm 2 mps 767 mmHg 84%
    20:00 +10°C° 0 mm 2 mps 768 mmHg 85%
    21:00 +11°C° 0 mm 1 mps 768 mmHg 87%
    22:00 +11°C° 0 mm 1 mps 768 mmHg 87%
    23:00 +11°C° 0 mm 1 mps 768 mmHg 87%

    18 September, Wednesday

    Time Temperature Precipitation Wind Pressure Humidity
    00:00 +10°C° 0 mm 1 mps 768 mmHg 87%
    01:00 +11°C° 0 mm 1 mps 768 mmHg 86%
    02:00 +11°C° 0 mm 1 mps 768 mmHg 86%
    03:00 +11°C° 0 mm 1 mps 768 mmHg 85%
    04:00 +11°C° 0 mm 1 mps 768 mmHg 86%
    05:00 +11°C° 0 mm 1 mps 768 mmHg 87%
    06:00 +11°C° 0 mm 1 mps 768 mmHg 88%
    07:00 +12°C° 0 mm 2 mps 768 mmHg 87%
    08:00 +13°C° 0 mm 2 mps 768 mmHg 85%
    09:00 +14°C° 0 mm 2 mps 769 mmHg 84%
    10:00 +14°C° 0 mm 2 mps 769 mmHg 83%
    11:00 +14°C° 0 mm 3 mps 769 mmHg 82%
    12:00 +14°C° 0 mm 3 mps 768 mmHg 82%
    13:00 +16°C° 0 mm 3 mps 768 mmHg 83%
    14:00 +16°C° 0 mm 3 mps 768 mmHg 84%
    15:00 +16°C° 0 mm 3 mps 768 mmHg 85%
    16:00 +16°C° 0 mm 2 mps 769 mmHg 87%
    17:00 +15°C° 0 mm 2 mps 769 mmHg 89%
    18:00 +15°C° 0 mm 2 mps 769 mmHg 91%
    19:00 +15°C° 0 mm 1 mps 769 mmHg 91%
    20:00 +14°C° 0 mm 1 mps 770 mmHg 92%
    21:00 +14°C° 0 mm 1 mps 770 mmHg 92%
    22:00 +14°C° 0 mm 1 mps 770 mmHg 91%
    23:00 +14°C° 0 mm 2 mps 771 mmHg 89%

    19 September, Thursday

    Time Temperature Precipitation Wind Pressure Humidity
    00:00 +14°C° 0 mm 2 mps 771 mmHg 88%
    01:00 +13°C° 0 mm 2 mps 771 mmHg 87%
    02:00 +13°C° 0 mm 2 mps 771 mmHg 87%
    03:00 +12°C° 0 mm 3 mps 771 mmHg 86%
    04:00 +12°C° 0 mm 3 mps 771 mmHg 86%
    05:00 +12°C° 0 mm 3 mps 771 mmHg 85%
    06:00 +11°C° 0 mm 3 mps 771 mmHg 85%
    07:00 +12°C° 0 mm 3 mps 772 mmHg 84%
    08:00 +12°C° 0 mm 3 mps 772 mmHg 82%
    09:00 +12°C° 0 mm 3 mps 772 mmHg 81%
    10:00 +13°C° 0 mm 3 mps 772 mmHg 79%
    11:00 +14°C° 0 mm 3 mps 772 mmHg 77%
    12:00 +15°C° 0 mm 2 mps 772 mmHg 76%
    13:00 +16°C° 0 mm 2 mps 772 mmHg 74%
    14:00 +16°C° 0 mm 2 mps 772 mmHg 72%
    15:00 +18°C° 0 mm 1 mps 772 mmHg 70%
    16:00 +16°C° 0 mm 1 mps 772 mmHg 73%
    17:00 +16°C° 0 mm 1 mps 772 mmHg 76%
    18:00 +15°C° 0 mm 1 mps 772 mmHg 79%
    19:00 +14°C° 0 mm 1 mps 772 mmHg 81%
    20:00 +14°C° 0 mm 1 mps 772 mmHg 82%
    21:00 +13°C° 0 mm 2 mps 772 mmHg 84%
    22:00 +13°C° 0 mm 2 mps 772 mmHg 83%
    23:00 +12°C° 0 mm 2 mps 772 mmHg 82%

    20 September, Friday

    Time Temperature Precipitation Wind Pressure Humidity
    00:00 +12°C° 0 mm 2 mps 772 mmHg 81%
    01:00 +10°C° 0 mm 2 mps 772 mmHg 80%
    02:00 +10°C° 0 mm 2 mps 772 mmHg 80%
    03:00 +9°C° 0 mm 2 mps 771 mmHg 79%
    04:00 +9°C° 0 mm 2 mps 771 mmHg 79%
    05:00 +9°C° 0 mm 2 mps 771 mmHg 79%
    06:00 +8°C° 0 mm 2 mps 771 mmHg 79%
    07:00 +10°C° 0 mm 2 mps 771 mmHg 75%
    08:00 +11°C° 0 mm 3 mps 771 mmHg 71%
    09:00 +12°C° 0 mm 3 mps 771 mmHg 67%
    10:00 +14°C° 0 mm 3 mps 770 mmHg 64%
    11:00 +16°C° 0 mm 3 mps 770 mmHg 61%
    12:00 +17°C° 0 mm 4 mps 770 mmHg 58%
    13:00 +17°C° 0 mm 4 mps 769 mmHg 58%
    14:00 +17°C° 0 mm 4 mps 768 mmHg 58%
    15:00 +17°C° 0 mm 4 mps 767 mmHg 59%
    16:00 +15°C° 0 mm 4 mps 767 mmHg 63%
    17:00 +14°C° 0 mm 4 mps 767 mmHg 67%
    18:00 +13°C° 0 mm 4 mps 767 mmHg 71%
    19:00 +12°C° 0 mm 4 mps 767 mmHg 73%
    20:00 +12°C° 0 mm 5 mps 767 mmHg 74%
    21:00 +10°C° 0 mm 5 mps 767 mmHg 76%
    22:00 +10°C° 0 mm 5 mps 766 mmHg 77%
    23:00 +9°C° 0 mm 5 mps 766 mmHg 79%
    Show more